Kezdőlap
METAR-TAF:

METAR-TAF

Repülőterek :

Crystal Airport

Minneapolis-Crystal, Minnesota, Amerikai Egyesült Államok

földrajzi szélesség: 45-03-45N, földrajzi hosszúság: 093-21-03W, magasság: 264 m

Jelenlegi meteorológiai megfigyelések

A jelentés 53 perccel ezelõtt készült, 16:53 UTC
Dél-délkeleti szél 10 kt
Hőmérséklet 28°C
Páratartalom 70%
Légköri nyomás 1016 hPa
Látótávolság: 16.1 km
Szakadozott felhőzet 2000 lábon

METAR: KMIC 131653Z 16010KT 10SM BKN020 28/22 A2999 RMK AO2 SLP150 T02780217

Idő: 12:46 (17:46 UTC)


TAF: hiányzik

Meteorológiai megfigyelések és előrejelzések több, mint 4000 repülőtéren (METAR és TAF jelentéseket).

A térképen piros és sárga pontok jelzik az elérhető meteorológiai állomásokat.

Mozgassa az egeret a pont fölött, hogy megjelenjen az állomás neve.

Azután kattintson az időjárási megfigyelések és előrejelzések megtekintéséhez.

A térkép megváltoztatása: kattintson a fekete keresztel jelölt zöld gombra ráközelítéshez, a vonallal jelölt zöld gombra távolításhoz, vagy a zöld nyilakra a szomszédos térképek eléréséhez.


METAR-TAF: